Location: ???? ???
(30.5005°N, 60.5936°E)
Time: 13:36:53
(UTC+00:00)

Sich 1 - Pass Details

Date: 07 June 2020
Orbit: 595 x 625 km, 82.5° (Epoch: 06 July)

Event Time Altitude Azimuth Distance (km) Brightness Sun altitude
Rises 00:15:40 0° 178° (S) 2,851 6.2 -8.2°
Reaches altitude 10° 00:17:54 10° 175° (S) 1,946 5.4 -7.8°
Maximum altitude 00:22:09 63° 94° (E) 671 3.5 -7.0°
Drops below altitude 10° 00:26:23 10° 13° (NNE) 1,941 6.3 -6.2°
Sets 00:28:37 0° 10° (N) 2,843 7.1 -5.8°
